{"data":{"norad_id":67038,"intl_designator":"2025-294J","name":"STARLINK-35775","alt_names":[],"object_type":"PAYLOAD","status":"ACTIVE","operator":null,"country":"US","launch_date":"2025-12-11","launch_site_code":"AFETR","launch_vehicle":null,"mission":null,"orbit_class":"UNKNOWN","rcs_meters":null,"size_class":null,"mass_kg":null,"dimensions":null,"purposes":["comms"],"wikipedia_slug":null,"has_3d_model":false,"image_url":null,"decayed_at":null,"tle_current":{"epoch":"2026-09-20T19:34:12.922176Z","epoch_age_seconds":54456,"freshness":"FRESH","line1":"1 67038U 25294J   26263.81542734  .00010545  00000+0  39220-3 0  9992","line2":"2 67038  43.0029  15.8926 0001841 267.7689  92.2952 15.27577359 44653","mean_motion":15.27577359,"eccentricity":0.0001841,"inclination_deg":43.0029,"raan_deg":15.8926,"arg_perigee_deg":267.7689,"mean_anomaly_deg":92.2952,"bstar":0.0003922,"rev_number":4465,"period_min":94.266911689675,"perigee_km":481.79385833898,"apogee_km":484.32014997131,"semimajor_km":6861.1940041551,"source":"CELESTRAK","updated_at":"2026-09-21T09:00:36.092645Z"}}}